STARLINK-32797, 62843

Orbit data source: Space-Track

STARLINK-32797, 62843 is a payload satellite owned by SpaceX/Seattle (US) in LEO that was launched on Mon, 27 Jan 2025 UTC via an FALCON 9 launch vehicle from the Air Force Eastern Test Range (AFETR). Payload-class satellites include a variety of spacecraft equipped with specific instruments for various scientific and technological missions. These include communications satellites like Starlink; space stations such as the ISS; scientific satellites like the Hubble; Earth observation satellites from companies like Planet Labs, Umbra, and HawkEye 360; GPS; miniature CubeSats for education and research; and military/defense satellites.

Loading next visibility...
Identifier
62843, 2025-019Q
Orbit
LEO
Country
Flag of USUS
Related business
Manufacturer
SpaceX/Seattle
Mission
Operational Commercial Communications
Bus & Motor
STARLINK V2M, Unknown motor
Mass
730 kg wet, ~700 kg dry
Launch date (UTC)
2025-01-27 (1 year ago)
Launch vehicle
FALCON 9
Launch site
Air Force Eastern Test Range (AFETR)
Object type
Payload
Rocket body
Debris
Shape & HBR
Box + 2 Pan, 17.7 m
Radar Cross Section
33.884 m², Large (>1 m²)

Expand to show TLE details & history
Last TLE update: 15 hours ago

TLE from 15 hours ago
0 STARLINK-32797
1 62843U 25019Q   26174.82455171  .00018030  00000-0  66281-3 0  9991
2 62843  43.0004 209.5256 0002014 278.6968  81.3656 15.27595111 78481
Epoch: 2026-06-23T19:47Z
TLE epoch observation values (Epoch: 2026-06-23T19:47:21.267Z)
Latitude
0.00001°
Longitude
0.69642°
Altitude
482.572 km
Speed
7.626 km/s
True Right ascension
13h 58m 06s
True Declination
0° 00' 00"
Sunlit
Object was in full shadow at epoch
Visualization orbit readout
Latitude
Unknown
Longitude
Unknown
Altitude
Unknown
Speed
Unknown
Apparent Right ascension
Unknown
Apparent Declination
Unknown
Sunlit
N/A
Visualization observer readout
Local Sidereal Time
21:54:18
Azimuth
Unknown
Elevation
Unknown
Doppler factor
Unknown
Orbital elements
Apogee altitude
486.331 km
Perigee altitude
483.567 km
Semi-major axis
6,863.086 km
Eccentricity
0.0002
Inclination
43.0004°
RAAN
209.5256°
Arg. of periapsis
278.6968°
True anomaly
81.38842°
Mean anomaly
81.3656°
Eccentric anomaly
81.37701°
Mean motion
3.81737 °/min
Orbital period
94.31 mins
BSTAR
0.00066281
Loading maneuver chart data...
Computing Atmospheric mass density...
Loading historical data...
Loading historical data...
Loading historical data...
Loading historical data...
Loading historical data...
Loading historical data...
Loading historical data...

Documentation

Showing up to 5 results
|